Location: Joplin
(37.0842°N, 94.5131°W)
Time: 13:21:19
(UTC-05:00)

N. Korean satellite - Pass Details

Date: 28 March 2019
Orbit: 458 x 508 km, 97.2° (Epoch: 25 April)

Event Time Altitude Azimuth Distance (km) Brightness Sun altitude
Rises 06:36:36 0° 29° (NNE) 2,551 10.8 -7.4°
Reaches altitude 10° 06:39:07 10° 48° (NE) 1,676 10.3 -7.0°
Maximum altitude 06:41:44 19° 95° (E) 1,229 9.9 -6.4°
Drops below altitude 10° 06:44:22 10° 141° (SE) 1,687 9.7 -5.9°
Sets 06:46:54 0° 160° (SSE) 2,573 10.4 -5.4°
